Regional Weather Roundup
Issued by NWS

Home | Current Version | Previous Version | Text Only | Print | Product List | Glossary Off
Versions: 1 2 3 4 5 6 7 8 9 10 11 12 13 14 15 16 17 18 19 20 21 22 23 24 25 26 27 28 29 30 31 32 33 34 35 36 37 38 39 40 41 42 43 44 45 46 47 48 49 50

000
ASUS43 KDMX 220206
RWRIA

WEATHER ROUNDUP FOR IOWA
NATIONAL WEATHER SERVICE DES MOINES IA
800 PM CST WED FEB 21 2018

NOTE: "FAIR" INDICATES FEW OR NO CLOUDS BELOW 12,000 FEET WITH NO
SIGNIFICANT WEATHER AND/OR OBSTRUCTIONS TO VISIBILITY.

* - THESE STATIONS ARE NOT NWS STATIONS...THUS NOT UNDER NWS
QUALITY CONTROL.  THEY ALSO DO NOT REPORT WEATHER SUCH
AS PRECIPITATION OR FOG.

IAZ001>003-012>014-020>022-031>034-043>046-220300-
   NORTHWEST IOWA

CITY           SKY/WX    TMP DP  RH WIND       PRES   REMARKS
CARROLL *      CLOUDY    21  14  73 NE10      30.58S WCI  10
CHEROKEE *     CLOUDY    19  13  76 SE7       30.58F WCI  10
DENISON *      CLOUDY    21  14  73 E10       30.57F WCI  10
LE MARS *      CLOUDY    16  12  86 N6        30.57F WCI   7
ORANGE CITY *  MOCLDY    18  12  79 E3        30.56F
SHELDON *      CLOUDY    14   9  79 E3        30.56S
SIOUX CITY     CLOUDY    18  10  71 NE5       30.57F WCI  11
SPENCER        MIX PCPN  18  11  74 E6        30.58F WCI  10
STORM LAKE *   MOCLDY    16  10  79 SE6       30.56F WCI   7
$$

IAZ055>058-069>071-079>083-090>094-220300-
   SOUTHWEST IOWA

CITY           SKY/WX    TMP DP  RH WIND       PRES   REMARKS
ATLANTIC *     CLOUDY    23  16  74 NE8       30.56S WCI  14
AUDUBON *      CLOUDY    21  16  79 CALM      30.56S
CLARINDA *     CLOUDY    27  21  80 NE7       30.56F WCI  19
COUNCIL BLFS * CLOUDY    23  18  80 E10       30.54S WCI  12
CRESTON *      CLOUDY    23  18  80 E14       30.55F WCI  11
HARLAN  *      CLOUDY    21  16  79 NE9       30.59R WCI  11
LAMONI         CLOUDY    25  19  78 NE10      30.54F WCI  15
RED OAK *      CLOUDY    25  19  80 NE12      30.55F WCI  14
SHENANDOAH *   CLOUDY    27  19  74 NE13      30.55F WCI  16
$$

IAZ047>049-059>061-072>074-084-220300-
   CENTRAL IOWA

CITY           SKY/WX    TMP DP  RH WIND       PRES   REMARKS
AMES           FAIR      23  15  71 E9        30.60S WCI  13
ANKENY *       MOCLDY    23  18  80 NE10      30.61S WCI  12
BOONE *        CLOUDY    21  16  79 NE9       30.58S WCI  11
CHARITON *     CLOUDY    25  21  86 NE7       30.57R WCI  17
DES MOINES     CLOUDY    24  16  71 NE9       30.59F WCI  14
GRINNELL*      FAIR      23  17  78 NE12      30.59F WCI  12
KNOXVILLE *    MOCLDY    25  18  74 NE7       30.57R WCI  17
MARSHALLTOWN   FAIR      22  16  78 NE6       30.59F WCI  14
NEWTON *       FAIR      23  16  74 NE8G15    30.59S WCI  14
PELLA *        FAIR      25  18  76 NE6       30.61R WCI  18
PERRY *        MOCLDY    22  17  81 NE7       30.59F WCI  14
$$

IAZ004>006-015-016-023>025-035-036-220300-
   NORTH CENTRAL IOWA

CITY           SKY/WX    TMP DP  RH WIND       PRES   REMARKS
ALGONA *       FAIR      19 N/A N/A SE5       30.60S WCI  13
CLARION *      FAIR      21  18  86 NE7       30.60F WCI  13
ESTHERVILLE    MOCLDY    13   8  81 E6        30.59F WCI   4
FORT DODGE *   FAIR      17  11  77 NE3       30.60F
MASON CITY     FAIR      21  12  68 E3        30.62F
FOREST CITY *  CLOUDY    21  18  86 CALM      30.61S
WEBSTER CITY * MOCLDY    19  14  79 N5        30.58S WCI  13
IOWA FALLS *   FAIR      21  16  80 NE3       30.60F
$$

IAZ007>011-017>019-026>030-037>042-050>054-066-220300-
   NORTHEAST IOWA

CITY           SKY/WX    TMP DP  RH WIND       PRES   REMARKS
CEDAR RAPIDS   FAIR      24  13  62 NE10      30.58F WCI  14
CHARLES CITY * FAIR      21  14  73 CALM      30.62F
CLINTON *      FAIR      26  20  77 NE10      30.63F WCI  16
DECORAH *      FAIR      19  14  79 NE3       30.61F
DUBUQUE        FAIR      23  13  65 NE7       30.61F WCI  15
MONTICELLO *   FAIR      25  14  63 NE6       30.61F WCI  18
OELWEIN *      FAIR      21  19  93 NE7       30.61F WCI  13
WATERLOO       FAIR      21  15  78 NE7       30.61F WCI  12
$$

IAZ064-065-067-068-078-220300-
   EAST CENTRAL IOWA

CITY           SKY/WX    TMP DP  RH WIND       PRES   REMARKS
DAVENPORT      FAIR      27  18  69 NE10      30.62F WCI  17
IOWA CITY      FAIR      27  15  61 NE9       30.60F WCI  18
MT. PLEASANT * FAIR      27  19  74 NE10      30.58F WCI  17
MUSCATINE *    FAIR      28  18  64 NE10      30.61F WCI  19
QUAD CITIES    FAIR      28  18  66 NE9       30.60F WCI  19
$$

IAZ062-063-075>077-085>089-095>099-220300-
   SOUTHEAST IOWA

CITY           SKY/WX    TMP DP  RH WIND       PRES   REMARKS
BURLINGTON     FAIR      27  19  72 NE9       30.58F WCI  18
FAIRFIELD *    FAIR      27  16  63 NE10      30.57F WCI  17
FORT MADISON * FAIR      27  19  74 NE6       30.59F WCI  20
KEOKUK *       FAIR      28  21  74 NE6       30.57F WCI  22
OSKALOOSA *    FAIR      25  19  78 NE8       30.59R WCI  16
OTTUMWA        FAIR      26  16  65 NE9       30.58S WCI  17
WASHINGTON *   FAIR      27  21  80 NE10      30.59F WCI  17
$$

ABBREVIATIONS USED IN REMARKS
   TC - TEMPERATURES IN CELSIUS
  WCI - WIND CHILL INDEX
   HX - HEAT INDEX
  VSB - VISIBILITY
$$




USA.gov is the U.S. government's official web portal to all federal, state and local government web resources and services.